Location: Gisborne
(38.6530°S, 178.0040°E)
Time: 16:51:47
(UTC+13:00)

Cosmos 1242 Rocket - Pass Details

Date: 24 January 2019
Orbit: 449 x 490 km, 81.2° (Epoch: 19 February)

Event Time Altitude Azimuth Distance (km) Brightness Sun altitude
Rises 22:54:22 0° 203° (SSW) 2,605 7.6 -22.8°
Reaches altitude 10° 22:56:46 10° 216° (SW) 1,715 6.5 -23.1°
Maximum altitude 22:59:51 24° 271° (W) 1,060 4.6 -23.5°
Enters shadow 23:00:49 22° 296° (WNW) 1,139 4.5 -23.6°
